This is the latest recevied weather packets stored in our database for station/object KC3QLX. If no packets are shown the sender has not sent any weather packets the latest 10 day(s).
| Time | Temp. | Humidity | Pressure | Rain* | Wind** | Luminosity | Snow |
|---|---|---|---|---|---|---|---|
| 1778055637 | 17.78° C | 72% | 1007.6 hPa | 0 mm | - | 0 W/m² | - |
| 1778055335 | 17.78° C | 70% | 1007.6 hPa | 0 mm | - | 0 W/m² | - |
| 1778055032 | 17.78° C | 71% | 1007.6 hPa | 0 mm | - | 0 W/m² | - |
| 1778054730 | 17.78° C | 70% | 1007.5 hPa | 0 mm | - | 0 W/m² | - |
| 1778054427 | 17.22° C | 70% | 1007.5 hPa | 0 mm | - | 0 W/m² | - |
| 1778054124 | 16.67° C | 73% | 1007.7 hPa | 0 mm | - | 0 W/m² | - |
| 1778053821 | 16.67° C | 72% | 1007.7 hPa | 0 mm | - | 0 W/m² | - |
| 1778053518 | 16.67° C | 71% | 1007.6 hPa | 0 mm | - | 0 W/m² | - |
| 1778053215 | 16.67° C | 74% | 1007.7 hPa | 0 mm | - | 0 W/m² | - |
| 1778052913 | 16.67° C | 73% | 1007.6 hPa | 0 mm | - | 0 W/m² | - |
| 1778052610 | 16.67° C | 73% | 1007.9 hPa | 0 mm | - | 0 W/m² | - |
| 1778052307 | 17.22° C | 72% | 1007.7 hPa | 0 mm | - | 0 W/m² | - |
| 1778052005 | 17.22° C | 70% | 1007.8 hPa | 0 mm | - | 0 W/m² | - |
| 1778051703 | 17.22° C | 71% | 1007.8 hPa | 0 mm | - | 0 W/m² | - |
| 1778051400 | 17.22° C | 68% | 1007.9 hPa | 0 mm | - | 0 W/m² | - |
| 1778051097 | 17.22° C | 69% | 1008 hPa | 0 mm | - | 0 W/m² | - |
| 1778050793 | 17.78° C | 67% | 1007.9 hPa | 0 mm | - | 0 W/m² | - |
| 1778050491 | 17.78° C | 65% | 1008 hPa | 0 mm | - | 0 W/m² | - |
| 1778050188 | 17.78° C | 68% | 1008.1 hPa | 0 mm | - | 0 W/m² | - |
| 1778049884 | 18.33° C | 66% | 1008.1 hPa | 0 mm | - | 0 W/m² | - |
| 1778049581 | 18.33° C | 65% | 1007.9 hPa | 0 mm | - | 0 W/m² | - |
| 1778049278 | 18.33° C | 65% | 1008.4 hPa | 0 mm | - | 0 W/m² | - |
| 1778048976 | 18.33° C | 64% | 1008.2 hPa | 0 mm | - | 0 W/m² | - |
| 1778048674 | 18.89° C | 63% | 1008.4 hPa | 0 mm | - | 0 W/m² | - |
| 1778048370 | 18.89° C | 62% | 1008.1 hPa | 0 mm | - | 0 W/m² | - |
* Rain latest hour (hover to see other rain measurements)
** Current wind speed in m/s (hover to see current wind gust speed)